Погода в Биаке

Индонезия     0°53′46″N   136°01′33″E
темп.,
°C
ветер,
м/с
пор.,
м/с
влажн.,
%
обл.,
%
осадки,
мм/ч
давл.,
гПа
погр.,
м
2 марта, вт
вт200:00+23сз1197100 1.1 100946
03:00+23сз1396100 1.6 100795
06:00+23зсз1194100 0.1 100841
09:00+27зсз2577100 0.1 1010742
12:00+29з247598 0.8 10091004
15:00+27сз259199 4.2 1007574
18:00+25сз2789100 0.1 1008471
21:00+23зсз1398100 2.6 1010129
3 марта, ср
ср300:00+23зсз1697100 6.9 1010145
03:00+23з2797100 10.2 1008236
06:00+23зюз2997100 2.8 1009313
09:00+24юз3796100 4.8 1012480
12:00+23зсз2899100 9.4 1010504
15:00+26ссз3684100 9.6 1008671
18:00+24ссз1589100 0.1 1009298
21:00+23ссз1293100 0.1 101074
4 марта, чт
чт400:00+23сз0189100 0.1 101153
03:00+23юз0190100 0.1 100930
06:00+23зсз1190100 0.0 101034
09:00+27зюз137793 0.0 1011430
12:00+31з235556 0.0 10101326
15:00+29зсз236551 0.6 10071009
18:00+25ссз138778 0.4 100873
21:00+24сз148889 0.4 1010130
5 марта, пт
пт500:00+23сз1290100 0.0 100966
03:00+23зсз1193100 0.7 100844
06:00+23з1196100 1.3 100939
09:00+26з2593100 3.8 1011486
12:00+27з2591100 3.4 1009689
15:00+28зсз2482100 5.3 1007844
18:00+25сз1293100 0.6 100869
21:00+24ссз129699 0.8 101068
6 марта, сб
сб600:00+23ссз129797 1.2 100965
03:00+23з119699 3.7 100845
06:00+23з2597100 0.6 1009166
09:00+24з1395100 0.7 1011154
12:00+26зсз2694100 2.4 1009421
15:00+27зсз2593100 6.2 1007694
18:00+24сз1596100 2.8 1008173
21:00+23сз1497100 4.6 1010140